Location: Middlebury
(44.0153°N, 73.1678°W)
Time: 11:55:25
(UTC-04:00)

QB50P2 - Pass Details

Date: 18 June 2024
Orbit: 561 x 578 km, 98.0° (Epoch: 18 July)

Event Time Altitude Azimuth Distance (km) Brightness Sun altitude
Rises 04:09:12 0° 6° (N) 2,773 ? -9.1°
Reaches altitude 10° 04:11:25 10° 360° (N) 1,868 ? -8.8°
Maximum altitude 04:15:14 42° 289° (WNW) 812 ? -8.3°
Drops below altitude 10° 04:19:01 10° 218° (SW) 1,849 ? -7.9°
Enters shadow 04:19:03 10° 218° (SW) 1,867 ? -7.9°
